Location: Peebles
(55.6412°N, 3.1714°W)
Time: 14:33:06
(UTC+01:00)

LEMUR 2 NALLYWACKER - Pass Details

Date: 08 July 2022
Orbit: 502 x 518 km, 97.4° (Epoch: 16 August)

Event Time Altitude Azimuth Distance (km) Brightness Sun altitude
Rises 23:24:20 0° 215° (SW) 2,644 ? -8.3°
Reaches altitude 10° 23:27:25 10° 243° (WSW) 1,761 ? -8.5°
Maximum altitude 23:29:18 13° 273° (W) 1,564 ? -8.6°
Drops below altitude 10° 23:31:12 10° 303° (WNW) 1,766 ? -8.7°
Sets 23:34:19 0° 332° (NNW) 2,658 ? -8.9°
